DA2PK Weather Reports


Display with metric or nautical units.
time (UTC)temp
F
wind
direction
speed
MPH
gust
MPH
rain 1hr
in
rain 24hr
in
rain mn
in
humidity
%
barometer
mb
20260507002023 48 88 1.0 3.0 0.00 1.14 0.00 93 1011.9
20260507001022 48 167 1.0 3.0 0.00 1.16 0.00 92 1011.9
20260506235043 48 12 1.0 4.0 0.00 1.21 0.00 92 1011.8
20260506234023 48 334 1.0 3.0 0.00 1.22 0.00 92 1011.9
20260506233022 48 124 2.0 4.0 0.00 1.24 0.00 92 1011.8
20260506232023 48 256 1.0 3.0 0.00 1.25 0.00 92 1011.6
20260506231022 48 332 2.0 3.0 0.00 1.26 0.00 92 1011.7
20260506230025 48 94 1.0 3.0 0.00 1.28 0.00 92 1011.6
20260506225022 48 315 1.0 4.0 0.00 1.29 0.00 92 1011.6
20260506224025 48 207 1.0 4.0 0.00 1.30 0.00 92 1011.5
20260506223024 48 121 1.0 4.0 0.00 1.31 0.00 92 1011.5
20260506222025 48 187 2.0 5.0 0.00 1.33 0.00 92 1011.5
20260506221023 48 225 1.0 5.0 0.00 1.34 0.00 92 1011.4
20260506220022 48 337 2.0 5.0 0.00 1.35 1.35 92 1011.3
20260506215024 48 173 2.0 5.0 0.00 1.35 1.35 91 1011.4
20260506214042 49 309 2.0 4.0 0.00 1.36 1.35 93 1011.4
20260506213043 49 171 1.0 4.0 0.00 1.37 1.35 93 1011.3
20260506212022 49 92 2.0 5.0 0.00 1.37 1.35 93 1011.3
20260506211027 49 340 2.0 7.0 0.00 1.37 1.35 93 1011.2
20260506210024 49 204 2.0 5.0 0.00 1.38 1.35 93 1011.2
20260506205023 49 15 2.0 4.0 0.00 1.38 1.35 93 1011.0
20260506204022 49 212 2.0 6.0 0.00 1.38 1.35 92 1011.1
20260506203024 49 210 2.0 4.0 0.00 1.38 1.35 93 1011.0
20260506202024 49 30 3.0 6.0 0.00 1.38 1.35 93 1011.0
20260506201024 49 95 3.0 5.0 0.00 1.38 1.35 92 1011.0
20260506200023 49 70 2.0 5.0 0.00 1.38 1.35 92 1010.8
20260506195044 49 123 2.0 5.0 0.00 1.38 1.35 92 1010.7
20260506194024 49 50 1.0 5.0 0.00 1.38 1.35 91 1010.7
20260506193045 49 16 3.0 7.0 0.00 1.38 1.35 91 1010.6
20260506192024 49 2 3.0 6.0 0.00 1.38 1.35 92 1010.6
20260506191024 49 15 3.0 6.0 0.00 1.38 1.35 92 1010.4
20260506190022 49 345 3.0 9.0 0.00 1.38 1.35 92 1010.2
20260506185023 49 83 3.0 7.0 0.00 1.38 1.35 93 1010.2
20260506184022 49 96 2.0 6.0 0.00 1.38 1.35 93 1010.0
20260506183042 50 68 3.0 6.0 0.00 1.38 1.35 93 1010.0
20260506182024 50 134 1.0 4.0 0.00 1.38 1.35 93 1009.7
20260506181022 50 91 2.0 5.0 0.00 1.38 1.35 93 1009.7
20260506180023 50 108 1.0 5.0 0.00 1.38 1.35 93 1009.6
20260506175022 50 42 2.0 5.0 0.00 1.38 1.35 93 1009.4
20260506174043 50 93 1.0 3.0 0.01 1.38 1.35 93 1009.4
20260506173042 50 61 1.0 4.0 0.01 1.38 1.35 93 1009.2
20260506172023 50 67 3.0 6.0 0.01 1.38 1.35 93 1009.2
20260506171027 50 65 2.0 6.0 0.02 1.38 1.35 93 1009.1
20260506170022 50 52 3.0 6.0 0.02 1.37 1.34 93 1009.1
20260506165022 50 53 2.0 7.0 0.02 1.37 1.34 93 1009.0
20260506164021 50 49 2.0 6.0 0.02 1.37 1.34 92 1008.9
20260506163022 50 65 2.0 4.0 0.02 1.37 1.34 92 1008.9
20260506162021 50 98 2.0 5.0 0.02 1.37 1.34 92 1008.9
20260506161021 50 42 2.0 4.0 0.01 1.36 1.33 92 1008.8
20260506160022 50 132 1.0 4.0 0.01 1.36 1.33 92 1008.8
20260506155021 50 230 1.0 3.0 0.00 1.35 1.32 91 1008.8
20260506154022 50 350 1.0 4.0 0.00 1.35 1.32 90 1008.8
20260506153021 51 71 1.0 4.0 0.00 1.35 1.32 91 1008.8
20260506152022 51 49 1.0 5.0 0.00 1.35 1.32 91 1008.7
20260506151041 50 95 2.0 5.0 0.00 1.35 1.32 91 1008.7
20260506150026 51 125 2.0 5.0 0.00 1.35 1.32 90 1008.6
20260506145023 51 95 2.0 7.0 0.00 1.35 1.32 89 1008.4
20260506144042 51 48 2.0 5.0 0.00 1.35 1.32 90 1008.4
20260506143021 51 40 3.0 8.0 0.00 1.35 1.32 90 1008.5
20260506142023 51 22 2.0 7.0 0.00 1.35 1.32 90 1008.5
20260506141021 51 64 4.0 10.0 0.00 1.35 1.32 91 1008.5
20260506140023 51 142 2.0 5.0 0.00 1.35 1.32 90 1008.4
20260506135021 51 28 2.0 6.0 0.01 1.35 1.32 90 1008.4
20260506134051 51 65 3.0 9.0 0.01 1.35 1.32 91 1008.3
20260506133022 51 288 2.0 4.0 0.01 1.35 1.32 90 1008.4
20260506132021 51 41 2.0 7.0 0.01 1.35 1.32 90 1008.2
20260506131022 51 53 4.0 12.0 0.02 1.35 1.32 89 1008.2
20260506130021 51 55 2.0 5.0 0.02 1.35 1.32 91 1008.2
20260506125022 50 90 2.0 4.0 0.02 1.34 1.31 90 1008.1
20260506124043 51 14 3.0 9.0 0.03 1.34 1.31 90 1008.1
20260506123021 51 23 3.0 6.0 0.03 1.34 1.31 90 1008.0
20260506122022 51 311 2.0 5.0 0.03 1.34 1.31 91 1008.1
20260506121021 51 76 2.0 4.0 0.03 1.33 1.30 91 1008.0
20260506120022 51 187 1.0 4.0 0.04 1.33 1.30 90 1007.9
20260506115043 51 68 2.0 5.0 0.04 1.32 1.29 90 1007.7
20260506114041 51 217 2.0 6.0 0.05 1.32 1.28 91 1007.8
20260506113022 51 145 1.0 5.0 0.07 1.31 1.28 90 1007.8
20260506112022 51 74 2.0 8.0 0.08 1.31 1.28 90 1007.7
20260506111023 51 137 2.0 6.0 0.09 1.30 1.27 90 1007.6
20260506110022 51 217 1.0 5.0 0.09 1.29 1.26 90 1007.7
20260506105021 51 40 2.0 8.0 0.10 1.28 1.25 91 1007.6
20260506104022 51 58 1.0 6.0 0.09 1.26 1.23 91 1007.6
20260506103022 51 11 2.0 6.0 0.08 1.24 1.21 91 1007.5
20260506102022 51 64 2.0 4.0 0.06 1.22 1.19 91 1007.4
20260506101021 51 85 2.0 6.0 0.05 1.21 1.18 90 1007.3
20260506100044 51 71 2.0 6.0 0.04 1.20 1.17 92 1007.2
20260506095021 51 40 2.0 9.0 0.02 1.18 1.15 91 1007.2
20260506094042 51 31 2.0 5.0 0.02 1.18 1.14 92 1007.0
20260506093021 51 56 3.0 7.0 0.02 1.17 1.13 92 1007.0
20260506092025 51 36 2.0 6.0 0.03 1.17 1.13 92 1006.9
20260506091022 51 130 1.0 4.0 0.04 1.17 1.13 93 1006.7
20260506090022 51 75 2.0 4.0 0.05 1.17 1.13 92 1006.7
20260506085023 51 37 2.0 6.0 0.08 1.18 1.13 92 1006.5
20260506084022 51 42 3.0 6.0 0.11 1.18 1.12 93 1006.5
20260506083045 51 55 3.0 9.0 0.13 1.18 1.11 93 1006.5
20260506082022 51 52 3.0 7.0 0.14 1.17 1.11 93 1006.5
20260506081021 51 46 2.0 7.0 0.14 1.16 1.09 93 1006.5
20260506073023 51 9 1.0 3.0 0.10 1.05 0.98 94 1006.4
20260506072023 51 134 1.0 3.0 0.10 1.03 0.97 94 1006.4
20260506071023 51 81 1.0 6.0 0.11 1.02 0.96 94 1006.3
20260506062021 51 17 1.0 6.0 0.09 0.92 0.86 94 1006.2
20260506061022 51 44 2.0 6.0 0.09 0.90 0.84 94 1006.1
20260506051047 51 101 1.0 4.0 0.10 0.82 0.76 94 1005.9
20260506045023 51 79 2.0 4.0 0.10 0.80 0.72 94 1005.8
20260506044023 51 44 2.0 4.0 0.11 0.83 0.70 94 1005.9
20260506043023 51 70 2.0 7.0 0.11 0.84 0.69 94 1005.8
20260506042022 51 80 2.0 8.0 0.10 0.84 0.67 94 1005.8
20260506041043 51 120 1.0 5.0 0.10 0.88 0.65 94 1005.8
20260506040022 51 93 2.0 6.0 0.10 0.89 0.63 94 1005.9
20260506035023 51 75 1.0 4.0 0.10 0.88 0.61 94 1005.9
20260506034022 51 54 2.0 6.0 0.10 0.87 0.59 94 1005.9
20260506033022 51 68 2.0 7.0 0.12 0.86 0.58 94 1005.8
20260506032023 51 48 2.0 6.0 0.14 0.87 0.57 94 1006.0
20260506031021 51 37 2.0 5.0 0.16 0.87 0.55 94 1006.0
20260506030022 51 36 1.0 5.0 0.17 0.86 0.54 94 1006.1
20260506025023 51 250 1.0 3.0 0.17 0.84 0.52 94 1006.1
20260506024021 51 182 2.0 5.0 0.17 0.82 0.50 94 1006.1
20260506023021 51 224 2.0 5.0 0.15 0.79 0.46 93 1006.2
20260506022021 51 247 1.0 4.0 0.13 0.75 0.43 93 1006.3
20260506021024 51 22 2.0 7.0 0.11 0.73 0.39 93 1006.3
20260506020023 51 174 2.0 4.0 0.10 0.71 0.37 93 1006.4
20260506015022 51 185 2.0 4.0 0.09 0.69 0.35 93 1006.3
20260506014023 51 346 1.0 5.0 0.09 0.67 0.33 93 1006.4
20260506013023 51 21 3.0 6.0 0.09 0.65 0.32 93 1006.5
20260506012043 51 360 2.0 6.0 0.09 0.63 0.30 93 1006.5
20260506011023 52 169 2.0 5.0 0.10 0.62 0.28 93 1006.5
20260506010022 52 187 2.0 6.0 0.11 0.61 0.27 93 1006.7
20260506005041 52 161 2.0 5.0 0.12 0.59 0.26 93 1006.7
20260506004024 52 98 2.0 5.0 0.12 0.58 0.24 93 1006.8
20260506003021 52 348 3.0 7.0 0.13 0.57 0.23 93 1006.9